TimePDT,TemperatureF,Dew PointF,Humidity,Sea Level PressureIn,VisibilityMPH,Wind Direction,Wind SpeedMPH,Gust SpeedMPH,PrecipitationIn,Events,Conditions,WindDirDegrees,DateUTC
12:35 AM,51.8,28.4,41,29.87,10.0,West,17.3,23.0,N/A,,Clear,270,2013-09-25 07:35:00
12:55 AM,51.8,26.6,38,29.86,10.0,West,12.7,20.7,N/A,,Clear,260,2013-09-25 07:55:00
1:15 AM,50.0,28.4,43,29.87,10.0,West,12.7,17.3,N/A,,Clear,280,2013-09-25 08:15:00
1:35 AM,50.0,28.4,43,29.87,10.0,West,13.8,20.7,N/A,,Clear,280,2013-09-25 08:35:00
1:55 AM,50.0,26.6,40,29.87,10.0,West,16.1,23.0,N/A,,Clear,270,2013-09-25 08:55:00
2:35 AM,50.0,28.4,43,29.85,10.0,WSW,17.3,27.6,N/A,,Clear,240,2013-09-25 09:35:00
2:55 AM,50.0,28.4,43,29.84,10.0,WSW,13.8,24.2,N/A,,Clear,240,2013-09-25 09:55:00
3:15 AM,50.0,28.4,43,29.83,10.0,WSW,13.8,25.3,N/A,,Clear,250,2013-09-25 10:15:00
3:35 AM,50.0,28.4,43,29.82,10.0,West,11.5,20.7,N/A,,Clear,260,2013-09-25 10:35:00
3:55 AM,50.0,28.4,43,29.82,10.0,WSW,10.4,25.3,N/A,,Clear,240,2013-09-25 10:55:00
4:15 AM,50.0,26.6,40,29.81,10.0,WSW,10.4,18.4,N/A,,Clear,250,2013-09-25 11:15:00
4:35 AM,50.0,26.6,40,29.82,10.0,WNW,5.8,-,N/A,,Clear,290,2013-09-25 11:35:00
4:55 AM,48.2,26.6,43,29.83,10.0,ENE,13.8,18.4,N/A,,Clear,70,2013-09-25 11:55:00
5:15 AM,48.2,26.6,43,29.84,10.0,ENE,9.2,-,N/A,,Mostly Cloudy,60,2013-09-25 12:15:00
5:35 AM,48.2,26.6,43,29.84,10.0,East,8.1,-,N/A,,Overcast,100,2013-09-25 12:35:00
5:55 AM,50.0,24.8,37,29.85,10.0,Calm,Calm,-,N/A,,Overcast,0,2013-09-25 12:55:00
6:15 AM,48.2,26.6,43,29.86,10.0,West,3.5,-,N/A,,Overcast,280,2013-09-25 13:15:00
6:35 AM,48.2,28.4,46,29.86,10.0,North,9.2,-,N/A,,Overcast,350,2013-09-25 13:35:00
6:55 AM,48.2,28.4,46,29.86,10.0,North,5.8,-,N/A,,Overcast,10,2013-09-25 13:55:00
7:15 AM,48.2,26.6,43,29.85,10.0,NNE,4.6,-,N/A,,Overcast,30,2013-09-25 14:15:00
7:35 AM,50.0,26.6,40,29.86,10.0,NNW,8.1,-,N/A,,Overcast,340,2013-09-25 14:35:00
7:55 AM,50.0,26.6,40,29.86,10.0,East,3.5,-,N/A,,Overcast,80,2013-09-25 14:55:00
8:15 AM,50.0,26.6,40,29.87,10.0,SSW,3.5,-,N/A,,Overcast,200,2013-09-25 15:15:00
8:35 AM,50.0,26.6,40,29.87,10.0,NNE,4.6,-,N/A,,Overcast,30,2013-09-25 15:35:00
8:55 AM,50.0,24.8,37,29.87,5.0,North,9.2,-,N/A,,Haze,360,2013-09-25 15:55:00
9:15 AM,51.8,23.0,33,29.87,10.0,North,12.7,-,N/A,,Overcast,350,2013-09-25 16:15:00
9:35 AM,51.8,23.0,33,29.87,10.0,WNW,8.1,-,N/A,,Overcast,300,2013-09-25 16:35:00
9:55 AM,53.6,23.0,30,29.87,10.0,NNW,16.1,23.0,N/A,,Overcast,330,2013-09-25 16:55:00
10:15 AM,53.6,23.0,30,29.87,10.0,North,8.1,-,N/A,,Mostly Cloudy,350,2013-09-25 17:15:00
10:35 AM,55.4,21.2,26,29.87,10.0,Calm,Calm,-,N/A,,Overcast,0,2013-09-25 17:35:00
11:15 AM,55.4,19.4,25,29.87,10.0,SW,5.8,-,N/A,,Overcast,220,2013-09-25 18:15:00
11:55 AM,55.4,19.4,25,29.86,10.0,WSW,5.8,-,N/A,,Overcast,250,2013-09-25 18:55:00
12:15 PM,55.4,17.6,23,29.85,10.0,NW,4.6,-,N/A,,Overcast,310,2013-09-25 19:15:00
12:35 PM,57.2,17.6,21,29.85,10.0,SW,3.5,-,N/A,,Mostly Cloudy,220,2013-09-25 19:35:00
12:55 PM,57.2,15.8,20,29.84,10.0,WNW,5.8,16.1,N/A,,Scattered Clouds,290,2013-09-25 19:55:00
1:15 PM,57.2,15.8,20,29.84,10.0,Calm,Calm,-,N/A,,Scattered Clouds,0,2013-09-25 20:15:00
1:35 PM,57.2,17.6,21,29.84,10.0,West,10.4,17.3,N/A,,Mostly Cloudy,260,2013-09-25 20:35:00
1:55 PM,57.2,19.4,23,29.84,8.0,West,13.8,18.4,N/A,,Mostly Cloudy,280,2013-09-25 20:55:00
2:15 PM,59.0,19.4,22,29.83,10.0,WSW,9.2,20.7,N/A,,Partly Cloudy,250,2013-09-25 21:15:00
2:35 PM,59.0,15.8,19,29.83,10.0,West,16.1,25.3,N/A,,Clear,280,2013-09-25 21:35:00
2:55 PM,59.0,17.6,20,29.83,10.0,West,13.8,21.9,N/A,,Partly Cloudy,260,2013-09-25 21:55:00
3:15 PM,57.2,19.4,23,29.82,10.0,West,13.8,24.2,N/A,,Partly Cloudy,260,2013-09-25 22:15:00
3:35 PM,59.0,19.4,22,29.82,10.0,West,13.8,20.7,N/A,,Clear,260,2013-09-25 22:35:00
3:55 PM,59.0,17.6,20,29.82,10.0,WSW,11.5,19.6,N/A,,Clear,250,2013-09-25 22:55:00
4:15 PM,57.2,15.8,20,29.82,10.0,West,12.7,19.6,N/A,,Clear,260,2013-09-25 23:15:00
4:35 PM,57.2,17.6,21,29.83,10.0,West,12.7,20.7,N/A,,Clear,280,2013-09-25 23:35:00
4:55 PM,55.4,19.4,25,29.83,10.0,WNW,6.9,-,N/A,,Scattered Clouds,300,2013-09-25 23:55:00
5:15 PM,55.4,23.0,29,29.83,10.0,NNW,12.7,18.4,N/A,,Mostly Cloudy,340,2013-09-26 00:15:00
5:35 PM,48.2,28.4,46,29.84,10.0,NNW,26.5,32.2,N/A,,Overcast,340,2013-09-26 00:35:00
5:55 PM,46.4,32.0,57,29.84,10.0,North,21.9,31.1,N/A,,Scattered Clouds,360,2013-09-26 00:55:00
6:15 PM,46.4,30.2,53,29.85,10.0,NNW,23.0,26.5,N/A,,Clear,340,2013-09-26 01:15:00
6:35 PM,44.6,28.4,53,29.87,10.0,NNW,16.1,27.6,N/A,Rain,Light Rain,340,2013-09-26 01:35:00
6:55 PM,44.6,28.4,53,29.88,10.0,East,6.9,17.3,N/A,,Mostly Cloudy,80,2013-09-26 01:55:00
7:15 PM,44.6,28.4,53,29.88,10.0,NNE,5.8,-,N/A,,Mostly Cloudy,30,2013-09-26 02:15:00
7:35 PM,44.6,30.2,57,29.88,10.0,ESE,5.8,-,N/A,,Overcast,110,2013-09-26 02:35:00
7:55 PM,44.6,28.4,53,29.88,10.0,West,8.1,-,N/A,,Scattered Clouds,280,2013-09-26 02:55:00
8:15 PM,42.8,30.2,61,29.88,10.0,NNW,10.4,-,N/A,,Mostly Cloudy,340,2013-09-26 03:15:00
8:35 PM,41.0,32.0,70,29.89,10.0,NNW,5.8,-,N/A,,Overcast,330,2013-09-26 03:35:00
8:55 PM,41.0,32.0,70,29.89,10.0,WNW,5.8,-,N/A,,Mostly Cloudy,290,2013-09-26 03:55:00
9:15 PM,41.0,32.0,70,29.89,10.0,South,4.6,-,N/A,,Mostly Cloudy,180,2013-09-26 04:15:00
9:35 PM,42.8,28.4,57,29.89,10.0,NNW,5.8,-,N/A,,Overcast,340,2013-09-26 04:35:00
9:55 PM,44.6,28.4,53,29.89,10.0,NW,8.1,-,N/A,,Overcast,320,2013-09-26 04:55:00
10:15 PM,44.6,28.4,53,29.89,10.0,NNW,5.8,-,N/A,,Overcast,340,2013-09-26 05:15:00
10:35 PM,44.6,28.4,53,29.89,10.0,NW,5.8,-,N/A,,Overcast,320,2013-09-26 05:35:00
10:55 PM,44.6,28.4,53,29.90,10.0,NW,6.9,-,N/A,,Overcast,320,2013-09-26 05:55:00
11:15 PM,44.6,28.4,53,29.90,10.0,Calm,Calm,-,N/A,,Overcast,0,2013-09-26 06:15:00
11:35 PM,44.6,24.8,46,29.90,10.0,East,5.8,-,N/A,,Overcast,90,2013-09-26 06:35:00
11:55 PM,44.6,28.4,53,29.90,10.0,NW,3.5,-,N/A,,Overcast,320,2013-09-26 06:55:00